IRIDIUM 168 (43924 NORAD) Tracking and Keplerian Element Data

This shows tracking and keplerian element data for the satellite.

Feedback or suggestion? Click here.




ElementValue
Catalog43924
NameIRIDIUM 168
Epoch Orbit76
Epoch Day16.90797755
Epoch Year2019
RAAN45.3602
Inclination86.6829
Eccentricity0.0013163
Argument of Perigee189.5547
Mean Anonmoly306.2631
Mean Motion14.83651325
Decay Rate-2.46E-06
L11 43924U 19002C 19016.90797755 -.00000246 00000-0 -33101-4 0 9996
L22 43924 86.6829 45.3602 0013163 189.5547 306.2631 14.83651325 768

Live tracking and technical data element details for IRIDIUM 168 (NORAD 43924). IRIDIUM 168 can be tracked NOW for your location showing map with azimuth and elevation plus other details from your city location.

Track the satellite on the map from your city or location and see movement details for azimuth, elevation, latitude, longitude, range, height, and movement on the map or in text.







IsCatalogInMostPopularTable: catalog: 43924, numindb: 2
Update: records affected: 1



GetName: 43924 IRIDIUM 168

Hit Count: updated at: Fri, 18 Jan 2019 22:08:27 GMT